Regional Weather Roundup
Issued by NWS

Home | Current Version | Previous Version | Text Only | Print | Product List | Glossary On
Versions: 1 2 3 4 5 6 7 8 9 10 11 12 13 14 15 16 17 18 19 20 21 22 23 24 25 26 27 28 29 30 31 32 33 34 35 36 37 38 39 40 41 42 43 44 45 46 47 48 49 50
000
ASCA44 KEWX 040320
RWRMX

LATIN AMERICA AND CARIBBEAN REGIONAL WEATHER ROUNDUP
NATIONAL WEATHER SERVICE AUSTIN/SAN ANTONIO TX
900 PM CST SAT DEC 03 2016

NOTE: "FAIR" INDICATED FEW OR NO CLOUDS BELOW 12,000 FEET WITH NO
SIGNIFICANT WEATHER AND/OR OBSTRUCTIONS TO VISIBILITY.

BAJA CALIFORNIA

CITY           SKY/WX    TMP DP  RH WIND       PRES   REMARKS
LA PAZ         PTCLDY    59  48  67 NW6       29.93R
MEXICALI       CLEAR     59   9  13 W8        30.04R
S.J. DEL CABO  PTCLDY    61  39  44 SW9       29.87S
TIJUANA        CLEAR     55  27  33 CALM      30.08R

NORTHWESTERN MEXICO

CITY           SKY/WX    TMP DP  RH WIND       PRES   REMARKS
CULIACAN       CLOUDY    63  57  82 CALM      29.86R
DURANGO        PTCLDY    54  45  71 S9        29.97R
GUAYMAS          N/A    N/A N/A N/A MISG        N/A
HERMOSILLO     PTCLDY    55  52  88 CALM      29.95R
CD. JUAREZ     CLOUDY    45  37  76 E6        29.93R WCI  41
LOS MOCHIS     PTCLDY    57  45  62 NW8       29.89R

NORTHEASTERN MEXICO

CITY           SKY/WX    TMP DP  RH WIND       PRES   REMARKS
CHIHUAHUA      MOCLDY    43  41  93 N5        29.98R WCI  40
MONCLOVA         N/A    N/A N/A N/A MISG        N/A
MONTERREY      MOCLDY    63  61  94 SE5       29.82R
REYNOSA          N/A    N/A N/A N/A MISG        N/A
SALTILLO       CLOUDY    57  54  88 CALM      29.98R
TORREON        PTCLDY    73  46  38 S13       29.83R
CD. VICTORIA   CLOUDY    77  66  69 W2        29.80R

WESTERN MEXICO

CITY           SKY/WX    TMP DP  RH WIND       PRES   REMARKS
AGUASCALIENTES MOCLDY    59  50  72 S17       30.14R
COLIMA           N/A    N/A N/A N/A MISG        N/A
DEL BAJIO      PTCLDY    63  50  63 SW15      30.20
GUADALAJARA    MOCLDY    57  54  88 N3        30.09S
MANZANILLO     MOCLDY    73  72  94 N6        29.85S
MAZATLAN       PTCLDY    70  63  78 N5        29.85R
P. VALLARTA    CLOUDY    79  70  73 W9        29.86R
URUAPAN        MOCLDY    63  59  88 CALM      30.15R DUSTDEVL
ZACATECAS      MOCLDY    52  46  82 S7        30.10S

CENTRAL MEXICO

CITY           SKY/WX    TMP DP  RH WIND       PRES   REMARKS
CUERNAVACA       N/A    N/A N/A N/A MISG        N/A
MEXICO CITY    CLEAR     63  46  55 SE8       30.23R
MORELIA        MOCLDY    63  52  67 S8        30.17R
POZA RICA      CLEAR     75  73  94 CALM      29.80R
QUERETARO      MOCLDY    64  48  55 N3        30.20R
S. LUIS POTOSI PTCLDY    66  43  42 S12       30.08R
TAMPICO          N/A    N/A N/A N/A MISG        N/A
TOLUCA         PTCLDY    52  48  87 N5        30.33R

SOUTHERN MEXICO

CITY           SKY/WX    TMP DP  RH WIND       PRES   REMARKS
ACAPULCO       CLEAR     82  75  78 W6        29.86R
B. DE HUATULCO   N/A    N/A N/A N/A MISG        N/A
P. ESCONDIDO     N/A    N/A N/A N/A MISG        N/A
VERACRUZ       MOCLDY    79  75  89 SE3       29.79R
ZIHUATANEJO    PTCLDY    77  72  83 CALM      29.89R

YUCATAN PENINSULA

CITY           SKY/WX    TMP DP  RH WIND       PRES   REMARKS
CAMPECHE       CLEAR     81  75  83 NE9       29.85R
CANCUN         MOCLDY    79  77  94 E9        29.93R
CHETUMAL         N/A    N/A N/A N/A MISG        N/A
CD. DEL CARMEN   N/A    N/A N/A N/A MISG        N/A
COZUMEL        PTCLDY    77  75  94 SE6       29.91R
MERIDA         CLEAR     82  70  65 SE8       29.89R
MINATITLAN       N/A    N/A N/A N/A MISG        N/A
TAPACHULA      PTCLDY    77  75  94 CALM      29.87R
TUX. GUTIERREZ CLEAR     75  61  60 CALM      29.91R
VILLAHERMOSA   PTCLDY    77  72  83 E10       29.83R

CENTRAL AMERICA

CITY           SKY/WX    TMP DP  RH WIND       PRES   REMARKS
MANAGUA        PTCLDY    79  72  78 SE5       29.83R

CARIBBEAN

CITY           SKY/WX    TMP DP  RH WIND       PRES   REMARKS
ARUBA          PTCLDY    82  75  78 E14       29.89S
CURACAO        PTCLDY    82  75  78 E14       29.92S
KINGSTON       PTCLDY    82  73  74 N8        29.92S
NASSAU         MOCLDY    77  68  73 E6        30.08S
SAN JUAN       PTCLDY    81  73  78 CALM      29.98S
SANTO DOMINGO  PTCLDY    77  73  88 NE5       29.94S
ST. CROIX      CLEAR     75  72  88 N6        29.99
ST. MAARTEN    PTCLDY    81  73  78 E7        29.97S
ST. THOMAS     CLEAR     79  73  83 E5        29.97

$$





USA.gov is the U.S. government's official web portal to all federal, state and local government web resources and services.